| time (UTC) | temp C | wind direction | speed KPH | gust KPH | rain 1hr cm | rain 24hr cm | rain mn cm | humidity % | barometer mb |
| 20260505230115 | 13 | 320 | 8.0 | 11.3 | 0.00 | 0.05 | 0.05 | 33 | 1010.3 |
| 20260505225612 | 13 | 296 | 8.0 | 9.7 | 0.00 | 0.05 | 0.05 | 33 | 1009.8 |
| 20260505225108 | 13 | 317 | 3.2 | 3.2 | 0.00 | 0.05 | 0.05 | 35 | 1010.0 |
| 20260505224605 | 13 | 316 | 3.2 | 3.2 | 0.00 | 0.05 | 0.05 | 37 | 1009.9 |
| 20260505224102 | 13 | 316 | 6.4 | 8.0 | 0.00 | 0.05 | 0.05 | 33 | 1010.1 |
| 20260505223600 | 13 | 333 | 4.8 | 4.8 | 0.00 | 0.05 | 0.05 | 32 | 1010.2 |
| 20260505223056 | 14 | 1 | 9.7 | 22.5 | 0.00 | 0.05 | 0.05 | 35 | 1009.8 |
| 20260505222552 | 14 | 327 | 11.3 | 14.5 | 0.00 | 0.05 | 0.05 | 32 | 1010.0 |
| 20260505222048 | 14 | 316 | 4.8 | 8.0 | 0.00 | 0.05 | 0.05 | 32 | 1010.0 |
| 20260505221546 | 14 | 302 | 8.0 | 11.3 | 0.00 | 0.05 | 0.05 | 32 | 1009.7 |
| 20260505221042 | 13 | 315 | 4.8 | 8.0 | 0.00 | 0.05 | 0.05 | 31 | 1009.9 |
| 20260505220539 | 13 | 328 | 11.3 | 16.1 | 0.00 | 0.05 | 0.05 | 32 | 1010.0 |
| 20260505220037 | 14 | 309 | 4.8 | 8.0 | 0.00 | 0.05 | 0.05 | 34 | 1010.0 |
| 20260505215535 | 13 | 343 | 8.0 | 12.9 | 0.00 | 0.05 | 0.05 | 32 | 1009.9 |
| 20260505215032 | 13 | 308 | 3.2 | 4.8 | 0.00 | 0.05 | 0.05 | 33 | 1009.9 |
| 20260505214530 | 13 | 304 | 3.2 | 8.0 | 0.00 | 0.05 | 0.05 | 34 | 1010.0 |
| 20260505214027 | 13 | 322 | 6.4 | 9.7 | 0.00 | 0.05 | 0.05 | 32 | 1010.2 |
| 20260505213525 | 13 | 291 | 9.7 | 11.3 | 0.00 | 0.05 | 0.05 | 35 | 1010.2 |
| 20260505213021 | 14 | 301 | 6.4 | 9.7 | 0.00 | 0.05 | 0.05 | 31 | 1010.2 |
| 20260505212517 | 14 | 324 | 3.2 | 4.8 | 0.00 | 0.05 | 0.05 | 30 | 1010.2 |
| 20260505212015 | 14 | 326 | 6.4 | 9.7 | 0.00 | 0.05 | 0.05 | 31 | 1010.6 |
| 20260505211512 | 14 | 293 | 8.0 | 11.3 | 0.00 | 0.05 | 0.05 | 30 | 1010.3 |
| 20260505211008 | 15 | 341 | 11.3 | 12.9 | 0.00 | 0.05 | 0.05 | 30 | 1010.2 |
| 20260505210505 | 14 | 296 | 1.6 | 1.6 | 0.00 | 0.05 | 0.05 | 34 | 1010.1 |
| 20260505210002 | 14 | 345 | 8.0 | 12.9 | 0.00 | 0.05 | 0.05 | 31 | 1010.3 |
| 20260505205500 | 15 | 329 | 8.0 | 9.7 | 0.00 | 0.05 | 0.05 | 32 | 1010.2 |
| 20260505204956 | 15 | 342 | 12.9 | 17.7 | 0.00 | 0.05 | 0.05 | 31 | 1010.5 |
| 20260505204455 | 15 | 324 | 6.4 | 9.7 | 0.00 | 0.05 | 0.05 | 29 | 1010.1 |
| 20260505203952 | 15 | 307 | 11.3 | 16.1 | 0.00 | 0.05 | 0.05 | 31 | 1010.2 |
| 20260505203448 | 15 | 298 | 9.7 | 14.5 | 0.00 | 0.05 | 0.05 | 29 | 1010.4 |
| 20260505202944 | 15 | 314 | 6.4 | 8.0 | 0.00 | 0.05 | 0.05 | 30 | 1010.3 |
| 20260505202441 | 15 | 229 | 4.8 | 11.3 | 0.00 | 0.05 | 0.05 | 31 | 1010.4 |
| 20260505201937 | 15 | 311 | 6.4 | 8.0 | 0.00 | 0.05 | 0.05 | 29 | 1010.7 |
| 20260505201434 | 15 | 329 | 8.0 | 11.3 | 0.00 | 0.05 | 0.05 | 31 | 1010.2 |
| 20260505200932 | 15 | 256 | 3.2 | 3.2 | 0.00 | 0.05 | 0.05 | 33 | 1010.5 |
| 20260505200430 | 15 | 281 | 11.3 | 14.5 | 0.00 | 0.05 | 0.05 | 30 | 1010.5 |
| 20260505195925 | 15 | 326 | 8.0 | 9.7 | 0.00 | 0.05 | 0.05 | 31 | 1010.5 |
| 20260505195422 | 15 | 282 | 11.3 | 12.9 | 0.00 | 0.05 | 0.05 | 30 | 1010.4 |
| 20260505194920 | 16 | 354 | 12.9 | 16.1 | 0.00 | 0.05 | 0.05 | 29 | 1010.7 |
| 20260505194417 | 15 | 314 | 1.6 | 1.6 | 0.00 | 0.05 | 0.05 | 30 | 1010.4 |
| 20260505193917 | 16 | 233 | 9.7 | 12.9 | 0.00 | 0.05 | 0.05 | 33 | 1010.6 |
| 20260505193415 | 15 | 326 | 8.0 | 14.5 | 0.00 | 0.05 | 0.05 | 31 | 1010.7 |
| 20260505192913 | 15 | 303 | 6.4 | 8.0 | 0.00 | 0.05 | 0.05 | 32 | 1010.3 |
| 20260505192410 | 15 | 235 | 12.9 | 14.5 | 0.00 | 0.05 | 0.05 | 31 | 1010.3 |
| 20260505191908 | 16 | 252 | 4.8 | 4.8 | 0.00 | 0.05 | 0.05 | 33 | 1010.8 |
| 20260505191406 | 15 | 252 | 4.8 | 9.7 | 0.00 | 0.05 | 0.05 | 34 | 1010.6 |
| 20260505190903 | 15 | 317 | 9.7 | 22.5 | 0.00 | 0.05 | 0.05 | 32 | 1010.8 |
| 20260505190358 | 15 | 287 | 4.8 | 4.8 | 0.00 | 0.05 | 0.05 | 35 | 1010.7 |
| 20260505185853 | 15 | 320 | 4.8 | 4.8 | 0.00 | 0.05 | 0.05 | 35 | 1010.7 |
| 20260505185350 | 15 | 324 | 8.0 | 12.9 | 0.00 | 0.05 | 0.05 | 33 | 1010.9 |
| 20260505184847 | 15 | 333 | 3.2 | 3.2 | 0.00 | 0.05 | 0.05 | 37 | 1010.8 |
| 20260505184344 | 15 | 276 | 3.2 | 4.8 | 0.00 | 0.05 | 0.05 | 37 | 1010.6 |
| 20260505183841 | 15 | 248 | 6.4 | 9.7 | 0.00 | 0.05 | 0.05 | 33 | 1010.7 |
| 20260505183337 | 15 | 247 | 12.9 | 17.7 | 0.00 | 0.05 | 0.05 | 33 | 1010.8 |
| 20260505182834 | 14 | 238 | 8.0 | 9.7 | 0.00 | 0.05 | 0.05 | 34 | 1010.9 |
| 20260505182331 | 14 | 325 | 4.8 | 8.0 | 0.00 | 0.05 | 0.05 | 33 | 1010.8 |
| 20260505181828 | 15 | 251 | 6.4 | 9.7 | 0.00 | 0.05 | 0.05 | 35 | 1011.2 |
| 20260505181325 | 14 | 247 | 4.8 | 4.8 | 0.00 | 0.05 | 0.05 | 36 | 1011.0 |
| 20260505180822 | 13 | 324 | 0.0 | 1.6 | 0.00 | 0.05 | 0.05 | 35 | 1011.3 |
| 20260505180318 | 14 | 273 | 4.8 | 8.0 | 0.00 | 0.05 | 0.05 | 37 | 1011.4 |
| 20260505175815 | 13 | 259 | 3.2 | 3.2 | 0.00 | 0.05 | 0.05 | 40 | 1011.4 |
| 20260505175311 | 14 | 323 | 8.0 | 11.3 | 0.00 | 0.05 | 0.05 | 37 | 1011.4 |
| 20260505174808 | 13 | 330 | 4.8 | 8.0 | 0.00 | 0.05 | 0.05 | 37 | 1011.5 |
| 20260505174305 | 14 | 284 | 1.6 | 3.2 | 0.00 | 0.05 | 0.05 | 36 | 1011.3 |
| 20260505173801 | 15 | 314 | 4.8 | 4.8 | 0.00 | 0.05 | 0.05 | 34 | 1011.5 |
| 20260505173257 | 15 | 316 | 3.2 | 3.2 | 0.00 | 0.05 | 0.05 | 38 | 1011.6 |
| 20260505172754 | 14 | 348 | 1.6 | 1.6 | 0.00 | 0.05 | 0.05 | 37 | 1011.5 |
| 20260505172252 | 13 | 294 | 4.8 | 4.8 | 0.00 | 0.05 | 0.05 | 37 | 1011.9 |
| 20260505171747 | 13 | 312 | 4.8 | 4.8 | 0.00 | 0.05 | 0.05 | 37 | 1011.7 |
| 20260505171244 | 13 | 312 | 6.4 | 8.0 | 0.00 | 0.05 | 0.05 | 38 | 1011.5 |
| 20260505170740 | 13 | 324 | 0.0 | 1.6 | 0.00 | 0.05 | 0.05 | 39 | 1011.8 |
| 20260505170238 | 13 | 291 | 8.0 | 9.7 | 0.00 | 0.05 | 0.05 | 41 | 1011.8 |
| 20260505165733 | 12 | 234 | 6.4 | 8.0 | 0.00 | 0.05 | 0.05 | 39 | 1011.6 |
| 20260505165229 | 13 | 335 | 6.4 | 8.0 | 0.00 | 0.05 | 0.05 | 38 | 1011.8 |
| 20260505164724 | 12 | 330 | 3.2 | 3.2 | 0.00 | 0.05 | 0.05 | 39 | 1011.8 |
| 20260505164222 | 12 | 332 | 1.6 | 1.6 | 0.00 | 0.05 | 0.05 | 43 | 1011.7 |
| 20260505163720 | 12 | 283 | 3.2 | 3.2 | 0.00 | 0.05 | 0.05 | 41 | 1011.8 |
| 20260505163218 | 12 | 332 | 1.6 | 3.2 | 0.00 | 0.05 | 0.05 | 40 | 1011.9 |
| 20260505162715 | 12 | 311 | 4.8 | 4.8 | 0.00 | 0.05 | 0.05 | 41 | 1011.9 |
| 20260505162212 | 12 | 299 | 4.8 | 8.0 | 0.00 | 0.05 | 0.05 | 39 | 1011.5 |
| 20260505161709 | 12 | 320 | 3.2 | 3.2 | 0.00 | 0.05 | 0.05 | 41 | 1011.8 |
| 20260505161207 | 12 | 276 | 3.2 | 3.2 | 0.00 | 0.05 | 0.05 | 41 | 1011.7 |
| 20260505160704 | 12 | 251 | 6.4 | 8.0 | 0.00 | 0.05 | 0.05 | 43 | 1012.0 |
| 20260505160202 | 12 | 339 | 6.4 | 9.7 | 0.00 | 0.05 | 0.05 | 40 | 1011.6 |
| 20260505153141 | 12 | 280 | 4.8 | 8.0 | 0.00 | 0.05 | 0.05 | 45 | 1011.7 |
| 20260505152637 | 11 | 286 | 3.2 | 3.2 | 0.00 | 0.05 | 0.05 | 43 | 1011.8 |
| 20260505152133 | 11 | 303 | 3.2 | 3.2 | 0.00 | 0.05 | 0.05 | 47 | 1011.8 |
| 20260505151628 | 11 | 290 | 4.8 | 4.8 | 0.00 | 0.05 | 0.05 | 48 | 1011.6 |
| 20260505151126 | 11 | 311 | 3.2 | 4.8 | 0.00 | 0.05 | 0.05 | 44 | 1011.7 |
| 20260505150622 | 11 | 297 | 1.6 | 1.6 | 0.00 | 0.05 | 0.05 | 44 | 1011.7 |
| 20260505150119 | 11 | 307 | 1.6 | 1.6 | 0.00 | 0.05 | 0.05 | 45 | 1011.8 |
| 20260505140548 | 10 | 318 | 0.0 | 0.0 | 0.00 | 0.05 | 0.05 | 53 | 1011.5 |
| 20260505125001 | 7 | 318 | 0.0 | 0.0 | 0.00 | 0.05 | 0.05 | 89 | 1010.3 |
| 20260505124458 | 6 | 318 | 0.0 | 0.0 | 0.00 | 0.05 | 0.05 | 93 | 1010.2 |
| 20260505123954 | 6 | 318 | 0.0 | 0.0 | 0.00 | 0.05 | 0.05 | 96 | 1010.1 |
| 20260505123451 | 6 | 318 | 0.0 | 0.0 | 0.00 | 0.05 | 0.05 | 97 | 1009.9 |
| 20260505122947 | 6 | 318 | 0.0 | 0.0 | 0.00 | 0.05 | 0.05 | 97 | 1010.2 |
| 20260505122444 | 6 | 318 | 0.0 | 0.0 | 0.00 | 0.05 | 0.05 | 98 | 1010.5 |
| 20260505121941 | 6 | 318 | 0.0 | 0.0 | 0.00 | 0.05 | 0.05 | 98 | 1010.4 |
| 20260505121438 | 6 | 318 | 0.0 | 0.0 | 0.00 | 0.05 | 0.05 | 98 | 1010.5 |
| 20260505120933 | 5 | 318 | 0.0 | 0.0 | 0.00 | 0.05 | 0.05 | 98 | 1010.6 |
| 20260505120430 | 5 | 318 | 0.0 | 0.0 | 0.00 | 0.05 | 0.05 | 97 | 1010.5 |
| 20260505115929 | 5 | 318 | 0.0 | 0.0 | 0.00 | 0.05 | 0.05 | 97 | 1010.3 |
| 20260505115426 | 5 | 318 | 0.0 | 0.0 | 0.00 | 0.05 | 0.05 | 97 | 1010.4 |
| 20260505114924 | 5 | 318 | 0.0 | 0.0 | 0.00 | 0.05 | 0.05 | 97 | 1010.3 |
| 20260505114420 | 5 | 318 | 0.0 | 0.0 | 0.00 | 0.05 | 0.05 | 97 | 1010.5 |
| 20260505113916 | 5 | 318 | 0.0 | 0.0 | 0.00 | 0.05 | 0.05 | 96 | 1010.3 |
| 20260505113413 | 5 | 318 | 0.0 | 0.0 | 0.00 | 0.05 | 0.05 | 96 | 1010.3 |
| 20260505112909 | 5 | 318 | 0.0 | 0.0 | 0.00 | 0.05 | 0.05 | 96 | 1010.4 |
| 20260505112407 | 5 | 318 | 0.0 | 0.0 | 0.00 | 0.05 | 0.05 | 95 | 1010.4 |
| 20260505111903 | 5 | 318 | 0.0 | 0.0 | 0.00 | 0.05 | 0.05 | 95 | 1010.4 |
| 20260505111357 | 5 | 318 | 0.0 | 0.0 | 0.00 | 0.05 | 0.05 | 94 | 1010.3 |
| 20260505110854 | 5 | 318 | 0.0 | 0.0 | 0.00 | 0.05 | 0.05 | 93 | 1010.1 |
| 20260505110351 | 5 | 318 | 0.0 | 0.0 | 0.00 | 0.05 | 0.05 | 93 | 1010.2 |
| 20260505101821 | 6 | 318 | 0.0 | 0.0 | 0.00 | 0.05 | 0.05 | 81 | 1009.6 |
| 20260505101317 | 6 | 318 | 0.0 | 0.0 | 0.00 | 0.05 | 0.05 | 83 | 1009.4 |
| 20260505100813 | 6 | 318 | 0.0 | 0.0 | 0.00 | 0.05 | 0.05 | 83 | 1009.2 |
| 20260505100310 | 6 | 318 | 0.0 | 0.0 | 0.00 | 0.05 | 0.05 | 84 | 1009.1 |
| 20260505095805 | 6 | 318 | 0.0 | 0.0 | 0.00 | 0.05 | 0.05 | 82 | 1009.4 |
| 20260505095304 | 6 | 318 | 0.0 | 0.0 | 0.00 | 0.05 | 0.05 | 80 | 1009.3 |
| 20260505094758 | 6 | 318 | 0.0 | 0.0 | 0.00 | 0.05 | 0.05 | 83 | 1009.2 |
| 20260505094256 | 6 | 318 | 0.0 | 0.0 | 0.00 | 0.05 | 0.05 | 86 | 1009.2 |
| 20260505093751 | 6 | 318 | 0.0 | 0.0 | 0.00 | 0.05 | 0.05 | 88 | 1009.2 |
| 20260505093249 | 6 | 318 | 0.0 | 0.0 | 0.00 | 0.05 | 0.05 | 88 | 1009.1 |
| 20260505092746 | 6 | 318 | 0.0 | 0.0 | 0.00 | 0.05 | 0.05 | 88 | 1008.9 |
| 20260505092244 | 7 | 318 | 0.0 | 0.0 | 0.00 | 0.05 | 0.05 | 87 | 1008.6 |
| 20260505091741 | 7 | 318 | 0.0 | 0.0 | 0.00 | 0.05 | 0.05 | 85 | 1008.6 |
| 20260505091239 | 7 | 318 | 0.0 | 0.0 | 0.00 | 0.05 | 0.05 | 82 | 1008.3 |
| 20260505090737 | 7 | 318 | 0.0 | 0.0 | 0.00 | 0.05 | 0.05 | 81 | 1008.4 |
| 20260505090235 | 7 | 318 | 0.0 | 0.0 | 0.00 | 0.05 | 0.05 | 77 | 1008.2 |
| 20260505085732 | 7 | 318 | 0.0 | 0.0 | 0.00 | 0.05 | 0.05 | 81 | 1008.0 |
| 20260505085230 | 7 | 318 | 0.0 | 0.0 | 0.00 | 0.05 | 0.05 | 81 | 1007.8 |
| 20260505084727 | 7 | 318 | 0.0 | 0.0 | 0.00 | 0.05 | 0.05 | 83 | 1007.9 |
| 20260505084226 | 6 | 318 | 0.0 | 0.0 | 0.00 | 0.05 | 0.05 | 88 | 1007.9 |
| 20260505083723 | 7 | 318 | 0.0 | 0.0 | 0.00 | 0.05 | 0.05 | 91 | 1007.9 |
| 20260505083219 | 7 | 318 | 0.0 | 0.0 | 0.00 | 0.05 | 0.05 | 92 | 1007.4 |
| 20260505082715 | 7 | 318 | 0.0 | 0.0 | 0.00 | 0.05 | 0.05 | 92 | 1007.1 |
| 20260505082213 | 8 | 318 | 1.6 | 3.2 | 0.00 | 0.05 | 0.05 | 90 | 1007.1 |
| 20260505081708 | 8 | 318 | 0.0 | 0.0 | 0.00 | 0.05 | 0.05 | 85 | 1006.9 |
| 20260505081206 | 8 | 318 | 0.0 | 1.6 | 0.00 | 0.05 | 0.05 | 79 | 1007.2 |
| 20260505080703 | 7 | 318 | 0.0 | 1.6 | 0.00 | 0.05 | 0.05 | 78 | 1008.0 |
| 20260505080159 | 7 | 318 | 1.6 | 1.6 | 0.00 | 0.05 | 0.05 | 83 | 1008.1 |
| 20260505075655 | 7 | 318 | 0.0 | 0.0 | 0.00 | 0.05 | 0.05 | 91 | 1007.1 |
| 20260505075152 | 7 | 318 | 1.6 | 1.6 | 0.00 | 0.05 | 0.05 | 93 | 1007.1 |
| 20260505074649 | 8 | 318 | 0.0 | 0.0 | 0.00 | 0.05 | 0.05 | 93 | 1007.0 |
| 20260505074145 | 8 | 318 | 0.0 | 0.0 | 0.18 | 0.05 | 0.05 | 92 | 1006.9 |
| 20260505073643 | 8 | 318 | 0.0 | 0.0 | 0.18 | 0.05 | 0.05 | 90 | 1006.5 |
| 20260505073141 | 8 | 318 | 1.6 | 3.2 | 0.00 | 0.03 | 0.03 | 87 | 1006.8 |
| 20260505072636 | 8 | 318 | 0.0 | 1.6 | 0.00 | 0.03 | 0.03 | 79 | 1007.0 |
| 20260505072133 | 8 | 318 | 0.0 | 0.0 | 0.00 | 0.03 | 0.03 | 86 | 1007.3 |
| 20260505071629 | 8 | 318 | 0.0 | 0.0 | 0.00 | 0.03 | 0.03 | 89 | 1007.9 |
| 20260505071127 | 7 | 318 | 0.0 | 0.0 | 0.00 | 0.03 | 0.03 | 90 | 1008.2 |
| 20260505070624 | 8 | 318 | 1.6 | 1.6 | 0.00 | 0.03 | 0.03 | 90 | 1008.4 |
| 20260505070120 | 8 | 318 | 0.0 | 0.0 | 0.00 | 0.03 | 0.03 | 88 | 1008.0 |
| 20260505065616 | 8 | 318 | 0.0 | 0.0 | 0.00 | 0.03 | 0.03 | 86 | 1008.0 |
| 20260505065113 | 8 | 318 | 0.0 | 1.6 | 0.00 | 0.03 | 0.03 | 82 | 1008.1 |
| 20260505064610 | 8 | 318 | 0.0 | 1.6 | 0.00 | 0.03 | 0.03 | 82 | 1008.4 |
| 20260505064109 | 7 | 318 | 1.6 | 1.6 | 0.00 | 0.03 | 0.03 | 80 | 1008.7 |
| 20260505063605 | 8 | 318 | 1.6 | 1.6 | 0.00 | 0.03 | 0.03 | 82 | 1008.9 |
| 20260505063101 | 8 | 317 | 0.0 | 1.6 | 0.13 | 0.03 | 0.03 | 77 | 1008.2 |
| 20260505062558 | 9 | 316 | 1.6 | 1.6 | 0.13 | 0.03 | 0.03 | 71 | 1008.1 |
| 20260505062055 | 10 | 315 | 0.0 | 0.0 | 0.00 | 0.00 | 0.00 | 64 | 1007.8 |
| 20260505061552 | 10 | 315 | 1.6 | 1.6 | 0.00 | 0.00 | 0.00 | 63 | 1007.7 |
| 20260505061050 | 10 | 317 | 1.6 | 1.6 | 0.00 | 0.00 | 0.00 | 60 | 1007.2 |
| 20260505060547 | 10 | 317 | 1.6 | 1.6 | 0.00 | 0.00 | 0.00 | 63 | 1007.8 |
| 20260505060044 | 10 | 317 | 1.6 | 1.6 | 0.00 | 0.00 | 0.00 | 60 | 1008.1 |
| 20260505055539 | 10 | 317 | 0.0 | 0.0 | 0.00 | 0.00 | 0.00 | 61 | 1007.9 |
| 20260505055036 | 10 | 317 | 1.6 | 3.2 | 0.00 | 0.00 | 0.00 | 61 | 1008.3 |
| 20260505054533 | 10 | 317 | 3.2 | 3.2 | 0.00 | 0.00 | 0.00 | 61 | 1008.3 |
| 20260505054032 | 10 | 317 | 4.8 | 4.8 | 0.00 | 0.00 | 0.00 | 60 | 1008.0 |
| 20260505053528 | 10 | 316 | 3.2 | 3.2 | 0.00 | 0.00 | 0.00 | 61 | 1007.7 |
| 20260505053025 | 10 | 316 | 0.0 | 0.0 | 0.00 | 0.00 | 0.00 | 63 | 1007.1 |
| 20260505052522 | 10 | 315 | 0.0 | 1.6 | 0.00 | 0.00 | 0.00 | 65 | 1007.4 |
| 20260505052020 | 10 | 312 | 3.2 | 3.2 | 0.00 | 0.00 | 0.00 | 63 | 1007.9 |
| 20260505051516 | 10 | 313 | 1.6 | 1.6 | 0.00 | 0.00 | 0.00 | 65 | 1007.6 |
| 20260505051015 | 10 | 318 | 1.6 | 1.6 | 0.00 | 0.00 | 0.00 | 66 | 1007.0 |
| 20260505050512 | 10 | 314 | 1.6 | 3.2 | 0.00 | 0.00 | 0.00 | 60 | 1006.9 |
| 20260505041440 | 10 | 312 | 4.8 | 4.8 | 0.00 | 0.00 | 0.00 | 66 | 1006.6 |
| 20260505040937 | 10 | 313 | 1.6 | 1.6 | 0.00 | 0.00 | 0.00 | 66 | 1006.7 |
| 20260505040435 | 10 | 324 | 3.2 | 3.2 | 0.00 | 0.00 | 0.00 | 69 | 1006.7 |
| 20260505035931 | 10 | 328 | 8.0 | 11.3 | 0.00 | 0.00 | 0.00 | 66 | 1006.7 |
| 20260505035427 | 11 | 320 | 14.5 | 22.5 | 0.00 | 0.00 | 0.00 | 65 | 1007.0 |
| 20260505034925 | 11 | 317 | 4.8 | 4.8 | 0.00 | 0.00 | 0.00 | 58 | 1006.9 |
| 20260505034421 | 12 | 262 | 3.2 | 4.8 | 0.00 | 0.00 | 0.00 | 53 | 1007.3 |
| 20260505033918 | 12 | 318 | 4.8 | 4.8 | 0.00 | 0.00 | 0.00 | 50 | 1007.1 |
| 20260505033415 | 12 | 305 | 3.2 | 3.2 | 0.00 | 0.00 | 0.00 | 48 | 1007.4 |
| 20260505032913 | 13 | 305 | 9.7 | 11.3 | 0.00 | 0.00 | 0.00 | 45 | 1007.1 |
| 20260505032410 | 13 | 305 | 4.8 | 4.8 | 0.00 | 0.00 | 0.00 | 45 | 1006.6 |
| 20260505031906 | 13 | 307 | 3.2 | 3.2 | 0.00 | 0.00 | 0.00 | 45 | 1006.3 |
| 20260505031403 | 13 | 314 | 1.6 | 3.2 | 0.00 | 0.00 | 0.00 | 45 | 1006.3 |
| 20260505030900 | 13 | 292 | 3.2 | 3.2 | 0.00 | 0.00 | 0.00 | 44 | 1006.5 |
| 20260505030356 | 13 | 320 | 4.8 | 8.0 | 0.00 | 0.00 | 0.00 | 44 | 1006.3 |
| 20260505025851 | 13 | 304 | 4.8 | 8.0 | 0.00 | 0.00 | 0.00 | 43 | 1006.2 |
| 20260505025349 | 13 | 320 | 9.7 | 12.9 | 0.00 | 0.00 | 0.00 | 43 | 1005.8 |
| 20260505024848 | 13 | 324 | 4.8 | 8.0 | 0.00 | 0.00 | 0.00 | 43 | 1005.9 |
| 20260505024345 | 13 | 311 | 4.8 | 8.0 | 0.00 | 0.00 | 0.00 | 43 | 1005.6 |
| 20260505023842 | 13 | 328 | 3.2 | 3.2 | 0.00 | 0.00 | 0.00 | 44 | 1005.7 |
| 20260505023339 | 13 | 305 | 8.0 | 14.5 | 0.00 | 0.00 | 0.00 | 43 | 1005.8 |
| 20260505022836 | 13 | 327 | 3.2 | 8.0 | 0.00 | 0.00 | 0.00 | 43 | 1006.0 |
| 20260505022333 | 13 | 322 | 8.0 | 11.3 | 0.00 | 0.00 | 0.00 | 42 | 1006.0 |
| 20260505021831 | 14 | 334 | 6.4 | 8.0 | 0.00 | 0.00 | 0.00 | 42 | 1006.0 |
| 20260505021327 | 14 | 303 | 9.7 | 11.3 | 0.00 | 0.00 | 0.00 | 42 | 1005.5 |
| 20260505020823 | 14 | 304 | 8.0 | 11.3 | 0.00 | 0.00 | 0.00 | 42 | 1005.4 |
| 20260505020319 | 14 | 321 | 4.8 | 4.8 | 0.00 | 0.00 | 0.00 | 42 | 1005.4 |
| 20260505015816 | 14 | 308 | 6.4 | 12.9 | 0.00 | 0.00 | 0.00 | 42 | 1005.0 |
| 20260505015313 | 15 | 318 | 6.4 | 9.7 | 0.00 | 0.00 | 0.00 | 42 | 1005.2 |
| 20260505014810 | 15 | 319 | 4.8 | 4.8 | 0.00 | 0.00 | 0.00 | 41 | 1005.3 |
| 20260505014307 | 15 | 303 | 6.4 | 8.0 | 0.00 | 0.00 | 0.00 | 41 | 1005.4 |
| 20260505013803 | 15 | 308 | 4.8 | 4.8 | 0.00 | 0.00 | 0.00 | 41 | 1005.5 |
| 20260505013301 | 15 | 286 | 11.3 | 14.5 | 0.00 | 0.00 | 0.00 | 39 | 1004.9 |
| 20260505012759 | 15 | 311 | 3.2 | 4.8 | 0.00 | 0.00 | 0.00 | 40 | 1004.9 |
| 20260505012256 | 15 | 319 | 4.8 | 4.8 | 0.00 | 0.00 | 0.00 | 38 | 1004.8 |
| 20260505011752 | 15 | 327 | 4.8 | 4.8 | 0.00 | 0.00 | 0.00 | 38 | 1004.7 |
| 20260505011249 | 16 | 348 | 3.2 | 4.8 | 0.00 | 0.00 | 0.00 | 39 | 1004.5 |
| 20260505010745 | 16 | 343 | 9.7 | 12.9 | 0.00 | 0.00 | 0.00 | 38 | 1004.5 |
| 20260505010241 | 16 | 299 | 8.0 | 11.3 | 0.00 | 0.00 | 0.00 | 37 | 1004.2 |
| 20260505005737 | 16 | 358 | 8.0 | 9.7 | 0.00 | 0.00 | 0.00 | 36 | 1004.1 |
| 20260505005235 | 17 | 254 | 14.5 | 17.7 | 0.00 | 0.00 | 0.00 | 35 | 1003.6 |
| 20260505004732 | 17 | 317 | 17.7 | 27.4 | 0.00 | 0.00 | 0.00 | 34 | 1003.6 |
| 20260505004228 | 17 | 301 | 4.8 | 8.0 | 0.00 | 0.00 | 0.00 | 34 | 1003.6 |
| 20260505003725 | 18 | 316 | 3.2 | 4.8 | 0.00 | 0.00 | 0.00 | 35 | 1003.5 |
| 20260505003223 | 18 | 346 | 3.2 | 4.8 | 0.00 | 0.00 | 0.00 | 35 | 1003.4 |
| 20260505002719 | 18 | 295 | 8.0 | 11.3 | 0.00 | 0.00 | 0.00 | 33 | 1003.1 |
| 20260505002217 | 18 | 314 | 3.2 | 4.8 | 0.00 | 0.00 | 0.00 | 33 | 1003.0 |
| 20260505001714 | 19 | 300 | 3.2 | 4.8 | 0.00 | 0.00 | 0.00 | 33 | 1002.8 |
| 20260505001212 | 20 | 294 | 4.8 | 4.8 | 0.00 | 0.00 | 0.00 | 32 | 1002.7 |
| 20260505000708 | 20 | 285 | 9.7 | 11.3 | 0.00 | 0.00 | 0.00 | 31 | 1002.8 |
| 20260505000206 | 20 | 262 | 17.7 | 27.4 | 0.00 | 0.00 | 0.00 | 30 | 1002.4 |
| 20260504235703 | 21 | 315 | 11.3 | 16.1 | 0.00 | 0.00 | 0.00 | 30 | 1002.5 |
| 20260504235159 | 21 | 340 | 4.8 | 4.8 | 0.00 | 0.00 | 0.00 | 30 | 1002.3 |
| 20260504234656 | 21 | 313 | 1.6 | 3.2 | 0.00 | 0.00 | 0.00 | 31 | 1002.4 |
| 20260504234153 | 22 | 322 | 3.2 | 3.2 | 0.00 | 0.00 | 0.00 | 29 | 1002.3 |
| 20260504233649 | 22 | 325 | 4.8 | 8.0 | 0.00 | 0.00 | 0.00 | 30 | 1002.2 |
| 20260504233145 | 22 | 277 | 12.9 | 17.7 | 0.00 | 0.00 | 0.00 | 29 | 1002.4 |
| 20260504232643 | 22 | 328 | 3.2 | 3.2 | 0.00 | 0.00 | 0.00 | 30 | 1002.3 |
| 20260504232140 | 22 | 318 | 8.0 | 9.7 | 0.00 | 0.00 | 0.00 | 29 | 1002.0 |
| 20260504231636 | 23 | 332 | 8.0 | 11.3 | 0.00 | 0.00 | 0.00 | 28 | 1002.2 |
| 20260504231133 | 23 | 319 | 4.8 | 4.8 | 0.00 | 0.00 | 0.00 | 30 | 1001.9 |
| 20260504230629 | 23 | 316 | 6.4 | 8.0 | 0.00 | 0.00 | 0.00 | 29 | 1002.0 |